Wind_Gust
13 17 19 18 11 9 13 11 14 11 10 10 11 12 14 15 12 10 10 12 10 18 25 25 25 22 22 23 22 22 25 23 23 23 23 18 17 17 17 16 14 12 12 10 10 10 11 11 11 11 11 9 11 10 10 8 7 8 7 6 8 6 7 8 10 12 13 13 14 15 17 18 17 18 16 17 16 17 16 15 17 16 17 17 18 19
18 15 11 12 12 11 10 10 9 10 9 13 13 13 18 15 20 14 11 11 12 21 21 18 20 20 21 22 22 23 26 26 27 27 25 21 18 18 17 16 16 14 13 12 12 11 10 12 10 10 10 8 8 8 9 8 8 7 6 6 7 6 7 8 10 11 12 14 15 15 17 16 17 16 18 20 19 18 18 16 14 16 16 17 18 19
16 16 14 13 11 8 8 7 9 10 11 12 18 15 17 18 11 10 10 11 13 20 22 20 26 22 20 21 21 24 26 25 25 26 24 21 19 19 17 17 15 15 15 13 13 11 13 11 10 10 9 9 9 8 8 8 7 8 8 6 6 7 9 9 9 11 12 12 11 14 15 15 17 16 16 17 15 15 17 15 16 15 16 18 19 19
16 14 14 12 8 10 11 9 11 14 13 15 19 20 22 12 16 21 15 12 15 24 20 21 25 21 19 19 20 21 24 24 24 23 22 19 20 19 17 16 16 16 16 14 13 13 13 11 11 10 10 9 9 9 8 8 7 7 7 7 8 9 8 10 11 12 12 11 12 15 16 15 16 16 16 17 18 16 18 19 18 17 17 18 19 19
18 15 10 8 10 11 13 10 13 18 18 12 16 17 17 15 12 20 14 17 19 21 18 19 24 22 22 23 24 22 21 22 23 21 22 21 19 17 14 13 14 15 13 14 14 12 12 12 12 11 11 10 10 9 9 8 8 7 8 8 9 9 10 10 10 12 13 13 14 16 15 15 16 16 17 16 20 20 21 21 20 21 19 19 20 21
15 13 8 9 11 10 11 17 13 17 16 14 11 13 13 10 13 13 15 15 19 20 21 21 29 30 24 25 27 26 28 28 26 26 27 24 22 20 18 16 15 14 13 13 14 13 12 12 12 12 11 10 10 10 9 9 9 8 8 8 8 9 12 12 12 12 12 15 16 16 16 17 16 18 19 20 23 22 21 22 19 20 22 21 20 21
16 10 9 9 11 11 12 15 10 13 20 15 13 10 10 12 12 12 14 17 21 22 23 20 28 24 25 27 27 28 27 28 25 27 26 25 26 23 21 20 20 19 18 14 14 14 14 12 11 11 11 10 11 10 9 8 7 7 8 8 9 9 10 12 14 14 15 15 15 17 17 18 21 20 19 18 19 19 17 17 18 20 21 23 22 21
13 10 10 10 12 15 13 19 10 13 18 20 12 10 11 14 14 14 17 19 18 16 14 18 27 28 24 28 25 27 27 31 28 28 29 29 26 26 23 22 19 20 18 18 17 16 14 13 11 11 11 10 10 10 9 9 8 8 8 7 8 10 10 11 11 15 16 16 17 17 17 17 18 20 20 19 18 17 17 19 19 19 22 23 24 22
10 10 11 11 13 16 18 13 11 11 19 16 9 10 14 14 15 15 17 21 16 15 21 21 18 29 29 18 22 23 26 31 32 29 30 27 26 25 24 24 20 18 18 17 19 18 16 14 12 10 10 10 10 10 10 9 8 8 7 8 8 9 10 9 10 11 14 16 16 17 16 17 17 17 19 18 18 19 20 20 19 20 23 23 25 27
9 10 11 13 16 19 9 9 9 10 19 10 9 14 13 14 14 16 21 21 18 23 24 19 21 31 28 20 21 24 27 29 29 26 26 27 25 25 22 20 20 19 18 18 17 18 16 14 13 10 9 10 10 10 9 9 8 8 8 8 8 8 10 10 10 11 12 14 16 16 15 16 16 17 17 18 19 18 17 19 19 22 25 24 24 25
10 8 9 14 16 14 12 10 9 9 10 8 11 17 17 18 20 16 20 21 16 25 28 19 19 24 28 22 24 27 31 30 24 23 24 25 21 21 21 21 23 22 21 20 19 17 17 15 13 12 12 11 11 11 9 9 9 8 9 9 9 9 9 9 12 12 11 13 13 16 14 15 16 15 16 17 18 18 17 21 21 23 24 24 26 25
12 12 16 11 9 13 12 14 10 9 9 14 20 19 19 21 17 21 22 18 27 29 20 26 19 17 29 19 22 22 17 26 28 25 26 26 27 25 23 24 23 22 21 21 21 20 18 17 15 14 13 12 12 11 10 9 9 9 9 9 9 9 9 9 10 12 11 12 12 13 14 15 15 15 16 18 18 18 19 19 20 21 22 25 25 23
17 12 11 10 9 11 15 19 17 17 16 20 20 20 22 21 16 22 23 25 27 30 15 12 14 22 32 25 13 19 20 16 20 22 25 27 29 25 23 23 23 23 22 23 21 20 19 18 18 16 14 13 12 11 10 10 9 10 9 9 9 9 9 9 9 10 11 11 11 12 13 15 16 17 17 17 18 18 19 20 21 21 24 25 23 23
14 10 13 12 13 12 14 19 16 19 21 21 22 21 22 23 22 20 22 23 23 19 17 16 12 31 21 19 19 17 21 16 12 15 15 17 22 26 26 24 25 25 24 23 22 21 20 18 18 16 15 14 13 12 11 10 10 10 9 8 9 8 8 8 9 10 10 11 11 13 14 13 15 17 17 17 18 18 20 20 22 23 23 21 22 22
17 13 19 14 13 11 15 15 14 15 16 21 15 20 22 23 26 20 21 23 22 23 16 13 20 30 21 13 15 11 12 12 11 14 14 13 15 18 23 26 25 25 24 25 23 22 21 19 16 16 15 14 13 12 11 10 9 9 8 8 8 8 8 8 9 9 10 10 10 10 12 13 14 15 17 18 18 19 20 20 22 23 23 22 22 24
11 21 16 9 11 12 11 10 11 14 18 15 14 17 22 23 21 30 13 18 17 17 17 22 24 10 16 16 13 10 10 11 11 12 13 16 16 17 21 26 27 29 30 27 23 22 20 18 16 16 15 14 13 11 11 11 10 8 8 7 7 8 8 9 9 10 10 10 11 11 11 12 13 15 16 17 17 17 18 19 21 23 22 22 22 21
13 18 13 11 8 10 11 9 10 12 15 14 17 22 17 16 17 17 10 13 9 22 32 22 23 24 17 22 21 16 12 13 11 12 14 15 17 19 21 23 24 27 29 29 25 23 21 18 17 16 15 14 12 12 11 10 9 8 7 7 8 8 8 9 9 10 9 10 11 11 12 12 13 14 16 17 16 17 17 18 19 21 21 22 21 23
19 13 16 12 13 11 8 9 11 11 16 15 19 13 14 13 16 17 20 12 16 26 23 18 23 23 22 26 14 15 15 16 17 15 15 14 16 21 24 24 25 26 26 25 23 21 21 19 19 17 14 13 13 11 10 9 9 8 7 7 9 9 10 10 10 10 9 10 10 11 11 12 13 15 16 17 17 16 17 18 18 18 20 22 24 24
12 22 18 11 8 12 11 12 15 12 10 18 15 14 20 14 18 19 19 21 21 23 26 22 21 24 22 20 18 16 19 17 15 15 15 18 20 22 21 21 22 23 26 27 24 23 21 20 19 17 15 14 14 11 9 10 10 9 8 9 9 10 10 10 11 10 10 10 10 10 12 12 12 13 14 14 16 17 17 18 18 19 22 20 20 23
12 18 16 14 14 10 13 17 15 14 15 11 13 18 12 17 17 14 15 19 20 20 18 21 18 23 18 20 13 15 17 15 12 14 19 22 22 21 19 20 23 24 25 26 25 21 21 20 18 17 15 16 15 12 11 10 10 9 9 10 10 10 10 11 12 11 12 10 11 11 12 11 12 13 12 11 13 16 17 17 17 18 19 20 19 21
11 10 17 18 9 12 20 19 14 13 14 17 18 19 15 19 14 20 19 23 22 23 22 25 27 20 15 16 12 16 16 16 17 20 18 19 20 19 18 19 21 22 23 24 25 22 21 20 17 16 15 15 12 11 12 12 12 11 11 10 10 10 11 12 11 11 11 11 11 12 12 12 12 12 14 12 11 12 14 16 16 17 16 18 20 20
11 17 17 12 18 19 12 11 10 13 15 16 14 15 15 15 15 17 21 17 22 25 24 22 30 21 19 11 12 16 13 14 15 16 17 16 16 16 17 17 20 21 21 23 23 22 21 19 17 17 18 13 12 14 14 14 13 12 12 11 10 12 13 11 11 10 11 11 11 12 13 13 12 13 13 13 12 13 14 16 16 15 16 17 18 19
14 11 16 18 17 15 11 9 9 10 12 15 17 17 13 16 16 21 21 15 15 22 21 24 28 25 14 12 12 13 13 13 13 13 16 14 14 15 16 16 18 19 20 22 22 23 20 17 17 17 15 13 14 13 13 13 14 14 12 12 11 11 11 11 12 11 11 11 11 11 12 12 13 13 14 13 12 13 14 15 16 16 16 17 17 19
7 19 18 20 17 13 12 10 10 10 11 17 20 19 16 19 16 19 21 15 20 14 19 20 27 26 14 16 14 11 12 13 13 13 16 14 13 14 16 16 17 18 19 21 22 21 22 18 17 17 15 15 16 15 15 14 15 14 14 14 13 12 10 12 12 12 11 11 11 11 12 12 12 13 14 15 14 13 12 14 14 15 16 17 18 19
20 16 17 15 19 16 16 13 15 11 16 20 18 16 17 17 14 14 17 14 22 23 23 25 30 22 16 12 13 13 13 15 16 14 13 16 14 15 17 16 16 17 19 21 22 23 22 19 20 19 17 17 17 17 15 16 16 15 14 14 14 12 10 11 10 11 12 11 11 11 12 12 12 13 14 14 15 14 14 13 12 13 14 16 18 17
17 12 16 17 16 16 17 16 11 10 15 15 14 15 16 18 17 16 18 17 22 17 17 24 30 24 15 17 15 16 16 17 17 16 14 14 13 15 16 17 17 18 20 22 22 23 22 21 20 18 16 17 18 18 19 18 16 16 16 14 11 12 12 11 11 11 12 12 12 12 12 12 12 13 13 14 15 14 15 14 13 13 13 15 15 16
15 11 18 20 19 19 16 17 11 13 13 14 14 16 18 18 19 19 20 21 23 15 23 22 27 27 26 22 20 20 16 16 18 14 15 15 15 15 15 17 18 20 21 23 23 24 23 20 19 18 18 18 16 16 17 17 18 17 17 14 14 13 11 11 11 12 12 12 12 13 12 13 14 13 11 11 12 12 14 15 14 14 14 14 16 15
17 19 17 18 19 20 18 17 13 11 17 17 17 17 16 18 19 20 22 25 16 20 29 23 20 25 28 23 21 20 19 18 17 17 17 16 15 17 17 17 15 20 21 23 24 25 25 21 19 18 18 17 18 18 18 18 18 18 17 16 15 14 12 11 12 13 12 12 12 12 11 12 10 10 11 11 12 12 12 13 15 15 14 14 16 17
19 16 13 14 17 17 17 17 15 15 17 18 18 18 19 19 20 23 24 25 22 24 31 22 21 26 27 25 24 22 21 21 20 19 17 16 16 15 16 18 21 22 23 25 26 26 25 24 23 20 19 19 18 17 17 19 18 18 17 16 16 14 14 12 12 12 12 12 12 11 10 9 9 9 10 11 12 11 12 12 13 14 15 15 16 15
20 21 12 13 17 17 16 16 14 18 19 20 21 21 21 21 23 24 26 24 26 27 28 29 27 30 30 28 27 26 18 16 19 15 15 16 19 19 19 20 22 24 25 27 27 27 26 26 23 21 20 19 20 19 20 20 19 19 18 18 16 14 13 12 12 13 12 12 11 10 10 10 10 10 10 11 11 11 11 12 13 14 14 13 13 14
21 14 12 13 17 19 15 13 14 16 17 24 22 21 22 22 23 24 26 26 25 28 28 29 29 32 30 24 24 20 14 14 14 17 18 17 16 18 20 21 22 24 26 27 27 28 27 26 24 22 21 21 20 20 21 19 19 18 19 17 16 15 13 13 12 13 12 12 12 11 11 10 10 10 11 10 10 10 11 12 12 12 13 13 14 14
19 14 12 14 15 19 15 13 13 14 16 22 25 24 24 23 25 25 31 25 24 27 24 23 25 28 27 19 15 15 16 17 16 16 15 15 16 17 20 22 22 23 25 26 27 27 27 27 25 24 23 22 21 21 21 20 20 19 18 17 16 15 14 13 13 13 12 12 13 13 12 11 10 11 10 11 12 11 11 10 12 12 12 13 15 14
22 21 14 15 19 18 10 11 13 15 20 25 25 27 23 21 22 22 22 21 25 23 21 22 27 24 20 15 17 17 15 16 17 17 16 16 16 19 21 22 22 22 24 25 26 27 27 26 25 24 23 22 22 23 22 20 20 19 18 16 15 13 12 13 13 13 13 13 13 13 11 11 12 11 11 11 11 10 11 10 11 12 11 12 14 14
21 20 20 14 21 18 13 12 12 19 24 24 14 10 10 10 14 17 20 21 22 24 28 24 25 22 21 19 19 19 17 16 16 15 12 15 16 18 20 20 21 21 22 23 24 25 25 25 25 25 23 21 21 21 19 19 19 17 16 17 15 13 14 14 14 13 13 13 12 12 12 13 12 12 10 11 11 11 11 10 11 11 11 9 12 14
20 20 20 17 21 21 13 10 17 24 28 13 10 10 11 15 17 22 23 22 21 21 25 28 27 26 25 21 20 20 19 16 13 16 15 15 15 16 20 20 20 20 21 22 23 23 23 23 23 21 21 23 21 17 18 19 18 16 17 16 16 16 15 15 14 13 13 13 12 12 12 13 12 11 11 11 10 11 11 10 11 11 11 10 10 12
18 19 18 17 20 17 16 19 21 21 13 15 18 10 8 9 11 12 17 22 24 25 23 27 26 26 22 18 17 15 15 13 15 17 18 17 17 17 17 19 20 20 21 22 22 23 22 24 23 23 22 21 21 21 20 19 17 18 18 17 17 16 15 15 15 14 13 13 13 13 12 12 10 11 12 11 11 11 9 9 11 11 11 10 10 11
23 22 20 22 19 22 19 20 28 23 29 22 23 17 15 12 13 10 14 16 14 17 19 21 22 21 16 14 13 11 9 12 15 17 17 18 18 18 19 19 19 21 21 19 20 22 22 22 22 22 21 20 21 22 20 18 19 19 18 18 17 16 15 15 16 15 14 14 13 12 12 11 12 11 12 12 11 10 10 9 10 10 10 12 11 12
22 26 19 22 17 16 22 23 24 22 25 18 13 12 11 9 8 9 15 23 14 15 15 17 17 13 11 10 9 9 9 15 16 17 12 12 15 16 16 14 15 17 18 18 19 19 20 19 19 19 20 21 21 20 19 18 19 20 19 19 17 16 16 17 17 15 14 14 13 12 10 10 12 12 12 11 11 10 9 9 10 10 8 11 12 12
22 23 23 23 22 14 19 25 26 23 23 14 14 15 12 12 8 9 16 20 17 11 13 16 15 11 11 10 10 12 14 15 17 17 13 12 16 16 17 16 16 17 17 19 21 20 20 19 20 20 20 21 21 21 19 19 20 21 20 19 18 18 17 18 18 16 15 14 14 12 10 10 11 11 11 12 11 10 10 9 10 10 10 12 13 13
24 25 21 26 22 26 22 25 27 24 23 9 11 12 15 14 10 16 18 17 17 12 11 13 13 11 10 10 13 13 14 15 15 17 11 12 13 14 16 16 16 17 18 18 18 18 18 18 20 20 21 22 22 21 21 20 20 19 20 19 18 18 18 18 18 17 14 13 14 15 12 10 10 10 11 12 11 9 9 10 11 10 11 11 13 13
25 25 26 29 28 25 20 29 27 27 24 20 22 15 17 11 12 17 21 20 13 10 11 13 9 8 12 14 15 13 17 15 12 10 8 7 8 11 12 12 15 16 17 17 18 14 20 21 22 23 24 25 24 21 21 21 21 21 20 18 17 18 19 18 16 15 14 13 14 16 16 12 11 12 11 10 10 9 10 10 10 10 11 12 13 14
21 21 21 22 27 29 26 29 29 26 24 17 14 17 19 15 19 22 21 11 8 7 11 11 9 10 13 16 16 16 12 9 8 7 8 9 9 9 12 13 14 15 15 15 16 18 18 21 20 21 22 21 22 21 22 22 21 20 20 17 18 18 18 17 15 15 14 15 15 13 13 14 11 11 11 11 10 10 11 9 9 11 12 14 15 14
24 22 23 25 25 24 22 25 24 25 14 12 18 16 18 18 19 17 13 9 10 8 8 9 10 10 13 13 15 15 11 8 9 9 9 9 11 10 13 15 16 18 19 19 19 21 21 21 23 24 22 22 20 22 22 21 20 19 17 18 18 18 16 14 15 16 15 15 15 13 14 13 13 12 12 11 10 10 11 11 10 10 12 14 15 15
19 26 24 24 26 26 27 31 30 25 13 22 20 13 21 24 13 10 11 12 9 10 10 10 10 12 13 12 13 14 13 11 11 12 12 12 12 10 10 12 14 16 18 20 20 20 20 19 19 19 18 19 21 21 22 23 22 19 18 19 17 14 13 14 16 15 15 15 15 15 14 14 14 13 11 11 11 11 11 11 10 11 13 15 16 15
23 27 18 19 23 28 26 26 23 13 13 20 17 12 12 18 14 10 10 14 17 17 11 14 13 11 14 13 12 10 11 13 12 9 11 11 12 13 13 14 15 17 17 18 19 18 19 20 19 19 19 19 19 20 22 23 22 19 20 17 14 15 16 16 16 15 16 17 16 15 15 14 14 13 12 12 12 11 13 12 12 13 14 16 16 16
11 15 13 16 26 21 25 20 13 15 17 18 16 15 16 14 13 13 15 19 17 16 14 16 14 12 11 12 13 12 14 9 9 10 11 11 11 12 12 13 14 14 16 17 17 17 19 19 18 19 19 18 20 20 20 21 20 20 20 16 16 17 16 17 16 16 17 17 16 16 16 15 13 14 12 11 12 12 12 13 13 13 15 16 15 15
20 18 19 24 14 16 22 20 26 25 18 15 19 18 16 15 16 15 15 17 18 16 15 13 15 14 12 13 15 15 13 11 11 10 11 12 13 12 14 14 15 16 17 19 18 17 17 17 19 20 20 20 20 20 21 19 19 19 18 17 18 17 16 17 17 16 16 16 17 15 15 15 15 15 14 13 13 12 12 12 12 13 15 17 17 15
19 10 20 23 20 25 20 10 12 14 16 15 18 16 16 15 13 13 15 13 14 13 13 14 12 13 13 15 16 15 15 12 12 12 12 13 14 15 16 16 15 15 15 16 16 17 16 18 19 20 21 22 21 20 20 20 20 19 18 18 18 17 17 16 17 17 17 17 16 15 16 17 9 13 15 15 13 13 13 12 12 14 16 16 17 19
20 15 16 16 28 23 22 19 17 14 14 14 14 13 13 13 14 11 11 12 12 13 14 13 13 14 14 16 12 14 15 16 15 14 13 12 13 14 15 15 15 14 15 17 18 19 20 19 20 20 21 21 21 20 20 19 19 18 17 17 17 17 17 17 16 16 16 16 16 15 15 17 17 17 15 15 13 12 12 14 14 14 13 12 16 16
20 23 22 19 21 21 22 19 15 21 18 17 12 13 12 11 10 11 10 11 10 12 12 13 12 13 15 15 14 15 17 16 13 13 13 13 15 13 13 15 16 16 16 15 16 18 18 17 19 20 21 20 20 20 20 19 19 18 19 19 18 17 18 17 17 16 17 17 16 16 16 17 19 18 17 15 14 14 14 10 11 11 12 15 8 10
19 16 19 19 21 16 15 13 10 13 15 13 12 13 12 10 10 10 11 11 11 11 10 11 13 11 14 15 15 17 17 17 13 12 13 13 14 14 15 16 17 17 18 18 17 18 18 19 19 19 21 20 19 20 20 20 20 19 19 19 18 19 19 19 18 17 17 17 16 16 17 19 18 20 18 15 14 15 14 15 15 9 11 13 8 8
Wind_Speed
3 6 7 7 3 1 5 4 6 4 3 2 4 4 5 6 3 2 1 2 2 8 12 13 14 11 11 12 12 12 12 11 11 11 10 8 8 8 8 7 5 5 5 4 4 4 5 5 3 3 3 4 4 3 4 3 2 3 2 1 2 1 2 2 3 3 4 5 5 5 7 7 7 7 7 6 6 6 6 7 7 8 7 8 8 9
7 4 1 4 4 3 3 3 2 1 3 5 5 5 6 6 7 6 1 1 4 9 10 9 10 9 11 11 12 12 14 14 14 13 12 12 9 9 9 8 8 6 5 6 5 5 4 5 4 3 3 3 2 2 1 0 1 2 1 1 1 2 2 3 4 4 4 4 5 6 6 5 6 5 5 6 6 6 6 7 7 6 6 8 8 8
4 3 5 4 3 1 0 0 1 3 4 5 7 6 6 6 3 2 1 2 4 9 9 10 14 10 9 10 11 12 14 12 12 12 12 12 10 9 8 8 7 7 7 6 5 5 5 5 4 3 3 3 2 3 3 3 2 2 2 1 1 1 3 3 4 5 4 4 5 6 4 5 5 5 5 5 4 3 5 6 7 7 8 8 8 8
5 4 6 4 1 2 3 2 3 4 5 5 7 7 9 2 4 7 5 3 5 8 6 9 13 7 7 9 11 11 13 10 10 12 12 11 11 10 8 7 7 8 7 7 5 6 5 5 4 3 3 3 3 2 3 2 2 1 1 2 1 2 3 3 5 5 5 5 6 7 6 5 6 5 5 6 7 7 9 9 8 8 8 9 8 8
7 7 2 0 1 4 2 2 5 7 7 4 7 7 7 6 4 9 3 2 5 6 6 9 10 7 8 10 10 10 10 10 13 12 12 11 10 8 6 5 6 7 6 6 6 6 5 5 5 4 4 3 3 3 3 3 2 1 2 1 1 0 2 4 3 6 6 6 7 6 6 6 7 7 7 7 8 9 9 8 8 10 10 10 10 9
6 5 0 3 2 3 3 7 5 7 6 5 1 5 5 3 6 2 3 6 7 7 9 11 10 11 11 14 12 10 10 12 11 12 13 13 12 10 9 8 7 6 6 6 7 6 5 5 5 5 4 4 3 3 3 2 2 1 2 2 1 1 2 2 5 6 5 7 8 6 6 6 7 7 7 9 9 8 8 8 9 10 10 11 10 10
5 3 2 2 3 2 5 6 3 5 8 6 4 2 3 5 5 5 6 7 8 8 9 10 12 7 11 14 13 10 12 13 12 14 12 12 12 12 10 10 9 9 8 7 6 7 7 5 5 5 4 4 4 4 3 2 2 2 1 1 1 2 2 3 3 4 5 7 7 9 9 8 8 8 7 7 7 7 6 6 7 5 8 11 11 11
4 3 3 3 5 6 4 8 3 5 7 7 5 3 4 7 6 7 8 8 7 7 3 7 9 10 8 12 13 16 15 14 13 14 14 13 13 13 11 10 10 10 9 8 8 8 7 6 4 5 4 3 4 4 3 3 2 2 1 1 1 1 2 3 3 6 6 7 8 9 9 8 9 8 8 8 8 7 5 6 7 5 6 9 12 11
3 3 4 4 6 6 7 5 4 4 7 4 2 4 7 6 7 7 7 8 6 5 7 8 9 10 11 6 12 14 14 19 20 16 18 16 13 12 11 10 11 9 9 9 9 9 8 7 5 4 4 3 3 3 3 3 2 2 2 1 0 1 2 3 3 5 7 7 7 7 7 8 8 8 8 8 8 6 8 10 8 7 6 7 10 14
2 3 3 6 6 7 2 1 3 3 8 3 1 3 4 6 6 8 8 9 7 9 10 8 9 11 11 7 8 11 12 13 13 14 13 13 13 12 11 11 11 10 9 9 9 9 8 7 6 4 3 4 3 3 3 3 2 2 2 2 1 2 2 2 3 5 6 7 8 8 7 7 7 7 7 8 8 8 7 9 9 8 6 7 7 12
3 1 2 5 6 5 4 0 1 2 1 1 4 8 7 8 8 6 8 8 5 6 12 11 9 11 8 9 10 10 12 13 10 10 10 12 12 12 11 12 12 11 10 9 10 9 9 8 6 6 5 4 4 3 3 3 3 2 2 2 2 2 1 2 4 4 5 6 6 8 8 8 8 8 7 8 8 8 7 8 10 7 6 6 8 11
5 4 7 2 2 5 4 5 3 2 3 6 7 7 7 8 7 8 8 7 9 10 9 15 10 8 11 6 8 10 5 11 13 14 15 15 15 13 13 12 13 12 11 11 11 10 10 9 7 7 6 5 5 4 4 3 3 3 2 1 1 2 2 2 4 5 4 5 5 6 7 8 8 8 7 9 9 9 10 8 7 7 6 7 10 11
7 4 3 2 1 5 6 8 6 7 6 8 8 8 9 7 4 6 8 9 9 11 2 0 5 9 13 11 4 2 5 8 10 10 12 15 15 14 13 14 12 12 12 12 11 10 10 9 9 8 7 6 6 4 4 4 3 3 2 1 1 2 2 2 3 4 5 5 5 5 7 7 7 9 9 9 9 9 9 9 10 10 11 12 11 9
1 2 6 4 5 4 6 7 5 7 8 9 8 8 8 7 7 7 7 7 8 8 6 5 3 12 9 7 9 7 8 5 3 6 6 7 11 14 13 13 13 13 13 12 11 11 10 9 9 8 8 7 6 5 4 4 3 2 1 1 1 1 0 2 3 4 4 5 5 6 6 6 7 8 8 8 8 8 8 8 8 9 9 8 9 9
6 4 7 6 2 2 6 5 5 6 6 7 6 7 9 8 7 5 5 8 7 7 2 3 6 8 10 2 4 1 2 0 1 3 3 5 6 7 11 13 14 14 14 13 12 11 11 10 9 8 7 6 6 5 5 4 3 2 1 1 1 1 1 3 3 3 4 3 4 4 4 5 6 7 7 8 8 8 8 8 9 8 8 8 8 9
4 7 5 2 4 3 4 2 4 6 7 5 4 6 9 8 6 10 3 7 6 5 5 7 6 1 2 5 4 2 1 2 3 3 5 7 8 8 9 12 13 13 13 13 13 12 11 10 9 7 7 6 6 5 4 4 3 2 2 1 1 2 2 3 3 4 4 4 3 4 4 4 5 6 7 7 7 7 8 8 9 9 8 8 8 8
4 6 6 4 2 2 2 2 3 3 5 3 6 8 4 5 6 6 3 2 3 8 11 7 8 8 6 9 10 7 5 5 4 5 5 6 8 10 10 11 13 13 13 13 13 12 12 10 9 8 8 6 5 5 5 4 3 2 1 1 2 2 2 3 3 4 3 3 3 3 4 5 5 7 8 8 9 8 8 8 8 8 9 9 9 8
8 3 8 5 6 4 1 2 1 4 6 3 7 1 4 3 6 5 6 2 5 9 7 7 9 9 8 4 3 6 6 7 7 6 6 5 7 10 11 12 13 14 14 14 13 12 12 11 10 9 7 6 6 5 4 4 3 2 1 1 3 3 4 4 4 4 3 3 4 4 4 4 5 6 7 8 8 8 8 8 8 8 8 8 8 8
2 8 6 4 1 5 4 5 6 4 3 7 5 6 8 2 8 7 4 8 8 8 7 8 11 10 9 5 6 6 9 9 7 5 5 7 8 10 10 11 12 12 12 13 13 12 11 10 10 9 8 7 7 5 3 4 3 3 2 3 3 4 4 4 4 4 3 4 3 3 4 4 4 4 5 7 8 8 9 10 9 9 9 9 9 10
4 6 3 5 6 2 5 6 5 5 6 4 4 6 4 5 5 5 3 6 5 8 7 8 8 5 7 7 4 3 3 3 4 3 7 8 8 8 8 9 11 12 13 13 12 11 11 10 10 9 8 8 8 6 4 4 2 2 3 4 4 3 4 5 5 5 5 4 4 4 5 4 5 5 5 5 6 7 9 9 9 9 9 9 9 10
3 2 6 6 3 3 6 6 4 4 5 6 6 6 5 6 3 6 6 7 7 7 7 8 8 4 3 6 2 2 4 5 6 8 8 8 8 8 8 8 9 11 12 12 11 11 11 11 9 8 7 6 5 4 3 3 4 4 4 4 4 4 4 5 4 5 4 4 4 5 6 5 5 6 5 6 5 6 7 8 8 8 8 8 10 10
2 6 6 4 6 7 2 4 3 5 5 6 4 5 5 5 5 7 8 5 7 7 7 7 9 6 4 2 2 6 3 1 2 4 5 6 7 6 7 8 10 10 12 12 11 11 11 10 9 8 8 5 4 4 5 5 5 5 5 4 3 4 5 4 3 3 4 4 4 5 5 6 6 5 5 6 6 6 7 8 7 7 8 9 9 10
4 3 6 7 7 5 3 3 2 3 5 7 6 6 5 6 5 6 7 5 4 7 9 10 11 8 1 3 3 1 1 1 1 3 4 4 4 4 6 8 9 10 11 12 12 11 10 9 9 8 7 6 5 5 6 6 6 6 5 5 4 4 4 4 5 4 4 4 5 5 5 5 6 5 5 5 5 6 7 7 8 7 8 8 8 10
1 6 6 8 7 5 4 3 3 3 4 7 9 8 6 7 6 7 7 4 7 5 6 7 9 7 4 7 5 2 3 2 2 3 6 5 3 3 5 7 9 9 11 11 10 10 9 9 9 8 7 6 6 7 7 6 7 6 6 6 5 5 4 5 4 4 4 4 5 5 5 5 5 6 5 5 4 5 6 6 6 7 8 9 8 9
5 5 6 5 6 5 6 4 5 3 6 7 6 6 8 7 6 6 7 5 7 10 12 9 11 6 6 3 4 4 5 6 8 5 5 6 3 3 5 6 7 8 10 12 12 12 11 11 11 9 7 7 7 8 7 7 7 7 7 6 6 5 4 4 3 4 4 4 5 5 5 5 5 6 5 4 4 5 5 5 5 5 7 7 9 9
6 4 5 6 6 6 6 6 2 2 5 5 6 7 7 9 9 6 7 6 8 7 9 8 9 9 2 6 4 6 7 7 7 7 6 5 5 4 4 6 7 8 10 12 13 13 13 11 10 8 8 7 8 8 9 9 8 7 7 7 5 5 5 4 4 4 5 5 5 5 6 5 5 6 5 4 4 5 5 5 5 6 6 6 7 8
4 4 7 8 8 7 5 6 3 5 5 5 7 8 9 10 10 9 8 8 8 5 9 9 11 12 13 11 9 11 8 7 6 6 6 5 5 5 5 6 7 8 10 13 13 12 11 11 11 10 9 8 8 8 8 8 8 8 8 7 6 5 4 4 4 5 5 5 6 6 5 5 5 5 5 3 3 4 4 3 4 5 5 5 6 7
6 7 9 11 11 11 10 10 6 4 8 9 9 9 8 9 10 11 9 10 7 7 11 8 8 10 10 10 10 9 9 9 8 7 8 7 5 6 6 7 9 9 10 11 13 14 14 12 11 10 10 9 9 8 8 8 8 9 8 8 7 6 5 4 4 5 5 5 5 5 4 4 4 3 3 2 2 2 3 3 3 4 5 5 6 6
7 6 7 7 10 10 9 10 8 8 9 10 10 10 11 10 11 13 14 14 13 9 12 11 12 15 14 12 12 11 10 9 8 8 8 7 7 7 8 8 10 11 12 13 14 14 14 13 12 11 10 10 10 9 9 9 9 9 8 8 7 6 6 5 5 5 5 4 5 4 3 2 2 1 1 2 2 1 2 2 3 4 5 5 5 5
6 8 5 6 9 9 9 9 7 10 10 12 12 12 12 13 14 14 15 15 15 16 16 15 17 18 15 15 13 10 6 5 5 5 5 7 9 9 9 10 11 11 13 14 15 15 14 14 13 12 11 11 11 11 10 9 9 9 9 8 8 7 5 5 5 5 5 5 4 3 3 2 1 1 2 2 3 2 3 3 3 3 3 5 5 5
8 3 6 6 8 9 9 7 8 9 10 13 13 13 13 13 14 15 15 15 16 16 17 17 17 16 13 11 10 6 5 4 5 7 7 7 7 9 10 11 12 12 13 14 15 15 15 15 14 13 12 12 11 11 10 10 9 9 9 9 7 7 5 5 5 5 5 5 3 3 3 2 2 2 3 3 3 3 4 3 3 4 3 4 5 6
8 5 4 5 6 8 8 7 7 8 9 13 14 14 14 14 14 13 13 12 13 14 15 13 13 11 9 7 5 6 8 8 8 7 7 7 7 8 9 11 12 13 14 14 15 15 15 15 15 14 13 12 12 11 11 10 10 9 9 8 8 6 6 5 5 5 5 5 3 4 4 3 3 4 3 4 4 4 3 3 3 3 3 2 3 4
9 8 4 5 8 7 4 4 7 8 10 12 13 15 14 13 13 12 12 12 14 13 10 10 11 9 9 7 8 8 8 8 9 8 8 8 7 8 9 11 11 12 13 13 14 16 16 15 14 14 13 12 11 11 12 10 10 10 9 8 7 5 4 5 5 4 5 4 4 4 3 4 4 4 3 3 4 3 4 3 3 2 2 2 2 2
10 10 8 6 7 7 7 5 5 7 10 8 4 4 1 3 3 7 9 11 13 12 11 10 11 10 12 10 10 9 8 7 7 6 4 6 5 7 9 9 10 11 12 13 13 15 15 13 12 13 13 12 12 11 10 10 9 8 8 8 7 6 6 5 5 4 5 5 5 4 4 5 4 4 3 3 4 4 4 3 2 2 2 1 1 1
10 9 8 6 7 8 5 4 6 10 10 2 3 4 4 7 9 13 14 13 12 13 15 16 16 15 14 11 9 9 9 9 6 8 8 7 7 7 7 8 9 10 11 13 13 13 13 14 14 13 12 12 12 10 9 9 9 8 8 7 7 7 6 5 5 5 5 5 5 4 4 5 4 4 4 3 3 4 4 2 1 1 1 0 1 1
8 8 6 6 6 5 5 6 8 7 3 0 7 1 2 2 4 6 9 12 15 15 14 15 14 13 11 9 8 7 6 6 6 9 9 9 8 8 8 8 8 9 11 11 13 13 13 14 13 13 12 11 11 11 10 9 7 8 9 8 8 7 6 6 6 6 5 5 5 5 4 4 3 4 4 4 3 4 2 1 1 1 0 1 2 3
13 9 6 8 7 8 7 8 11 12 15 12 12 8 5 4 4 2 4 7 7 8 10 11 11 10 8 6 5 4 3 4 6 7 9 9 9 9 9 7 6 8 9 10 11 12 12 13 13 12 11 11 11 11 10 9 9 9 9 8 8 7 6 6 6 7 5 5 5 4 4 3 4 4 5 4 3 2 1 0 1 0 1 2 2 3
12 11 7 9 4 5 9 9 8 8 9 6 1 5 5 3 2 2 6 10 7 7 7 8 7 4 4 3 2 2 2 6 6 5 4 4 7 8 8 7 6 8 10 10 10 10 11 11 10 11 11 12 12 12 10 10 9 10 10 9 8 7 7 7 7 7 6 6 5 4 3 3 4 4 4 3 1 1 1 1 0 1 1 2 3 4
11 11 11 10 8 5 7 10 9 9 7 3 1 8 6 5 1 3 6 8 3 4 4 4 3 2 2 2 2 4 5 5 6 1 5 4 6 7 8 8 8 8 9 11 12 12 11 11 11 11 11 12 13 12 11 11 12 11 10 9 9 8 8 7 8 7 7 6 5 2 1 3 4 3 3 2 0 0 0 1 1 1 2 2 4 4
10 9 9 10 9 10 9 9 10 5 6 3 2 5 7 6 1 7 7 3 8 5 3 2 1 1 0 1 3 4 5 5 6 5 3 2 2 4 6 7 8 8 9 9 10 10 10 10 11 11 12 13 13 13 12 11 10 11 10 10 9 9 8 8 8 8 6 5 3 4 1 2 3 3 2 1 0 0 1 1 2 3 3 3 3 4
9 9 10 13 12 11 12 10 9 8 7 10 9 6 9 5 4 6 8 1 5 3 2 2 1 1 2 3 3 4 3 4 4 3 2 1 1 4 5 5 7 8 8 9 9 9 10 11 11 12 13 13 14 12 11 11 11 11 11 9 8 8 9 8 8 7 6 5 4 5 4 1 3 1 2 2 1 1 1 2 3 3 4 4 3 4
8 8 8 10 12 12 10 12 10 10 8 7 6 9 10 4 7 8 0 3 2 1 1 2 2 2 3 1 1 4 3 1 1 1 2 2 2 2 5 6 6 7 7 8 9 9 9 10 11 12 13 12 12 11 11 12 11 10 10 9 9 9 8 8 7 7 6 6 6 5 5 3 1 2 3 2 2 2 3 2 2 3 4 4 5 5
8 7 8 10 8 8 8 10 9 11 2 4 9 8 9 6 5 3 3 1 2 1 2 2 0 2 3 1 2 3 2 1 2 2 3 3 4 4 5 7 8 10 10 10 11 12 11 11 12 13 13 11 11 11 11 12 12 10 9 9 9 8 8 6 6 7 7 6 6 4 4 4 4 4 3 3 3 2 3 3 3 3 3 5 6 6
7 8 7 7 8 8 10 10 8 6 3 12 10 3 9 11 2 2 4 3 2 3 3 3 2 1 3 3 2 2 2 2 2 4 4 5 5 4 4 5 7 8 10 11 11 11 12 10 10 10 10 10 10 11 11 12 12 10 9 9 7 6 5 6 7 7 6 5 5 5 4 5 6 5 4 4 3 3 3 4 4 3 4 5 6 5
9 11 5 6 7 8 7 8 10 6 3 9 9 4 4 10 7 3 4 6 6 6 4 5 4 4 4 3 4 4 4 3 3 1 4 4 5 6 6 6 7 8 9 10 11 10 11 10 11 10 10 9 11 10 11 12 12 10 10 7 6 6 7 7 7 6 6 6 6 6 6 5 5 5 5 4 4 3 4 4 4 4 5 6 6 6
2 6 3 5 10 11 12 10 5 5 7 7 8 6 5 5 5 6 7 7 6 6 5 6 5 4 4 4 5 4 5 3 3 3 4 4 4 5 6 6 7 7 8 9 9 9 11 10 10 10 11 10 11 10 11 11 10 11 10 7 7 8 7 7 7 7 7 7 6 6 6 6 5 6 5 5 4 4 3 4 5 5 6 7 6 6
10 8 8 9 4 4 6 11 15 14 10 8 8 8 8 7 7 6 6 6 5 4 5 5 6 6 5 5 6 7 5 4 4 3 4 4 5 5 7 7 8 8 9 11 9 8 9 9 9 10 11 11 11 10 11 11 10 10 8 7 8 8 7 8 7 7 7 6 6 6 6 6 6 6 6 6 5 4 4 4 5 5 6 7 6 6
6 2 8 12 10 9 6 3 5 6 7 6 7 7 7 7 6 5 4 2 3 3 4 4 4 5 5 7 7 7 7 6 6 5 5 5 6 7 7 8 8 8 8 8 8 9 8 7 8 10 11 11 11 10 10 10 10 10 8 9 8 8 8 7 7 7 7 7 6 6 6 6 6 2 5 6 5 5 4 4 4 5 7 7 7 7
9 7 4 6 10 9 12 10 7 6 6 6 7 6 4 5 6 5 4 4 3 3 2 3 4 4 5 7 5 7 7 7 7 6 6 5 5 6 7 7 7 7 7 9 10 10 10 9 9 10 11 11 11 10 10 10 10 9 9 9 8 8 8 7 8 7 6 6 6 6 6 6 7 7 6 6 5 4 4 5 5 6 5 6 6 5
8 8 10 8 7 8 8 7 7 8 6 6 4 5 4 4 2 3 4 4 3 2 2 3 2 3 4 5 6 7 8 7 6 6 7 6 6 6 7 7 8 8 8 8 7 10 10 10 11 12 11 9 10 10 10 10 10 9 9 9 8 8 8 8 8 7 6 6 6 6 6 7 6 7 7 6 5 5 5 9 9 6 2 6 6 8
8 8 4 5 7 4 6 7 5 4 5 2 3 6 4 3 3 3 4 3 2 2 3 4 4 4 3 4 6 8 9 7 6 5 6 6 5 6 7 9 9 9 9 9 9 10 10 11 11 11 11 9 10 10 10 10 10 9 9 9 9 9 9 9 8 7 6 6 6 6 6 7 6 7 7 6 5 4 5 6 6 7 8 9 7 7
Wind_Direction
238 202 197 200 205 92 34 345 345 355 317 333 250 263 236 256 244 87 282 60 246 250 234 223 227 218 190 180 179 182 178 176 168 170 171 169 173 177 176 170 161 147 136 135 127 109 88 75 55 51 72 87 103 66 63 58 51 18 18 306 243 354 301 254 221 209 200 221 220 231 224 217 208 213 208 204 210 225 233 233 229 228 223 229 221 215
247 196 141 14 10 351 11 3 315 202 230 259 255 240 224 203 247 94 349 278 223 236 224 218 232 217 193 177 181 178 182 179 176 173 177 177 182 185 178 163 158 151 150 157 139 121 109 85 77 80 74 59 70 62 327 284 104 99 76 298 268 186 244 257 253 229 217 215 232 227 227 232 232 232 231 226 216 219 241 233 245 250 238 228 225 219
208 78 67 34 25 19 208 237 250 253 224 216 253 227 262 224 247 122 169 196 210 222 237 197 221 206 184 184 183 183 189 180 180 178 179 182 182 188 178 159 156 162 154 146 133 120 102 97 91 91 85 84 74 90 67 49 23 24 271 240 231 191 209 220 241 258 241 221 219 229 223 232 241 250 261 264 260 254 253 248 230 234 243 241 228 217
168 108 67 43 104 201 148 212 201 207 236 241 216 237 232 264 280 212 142 185 196 218 236 196 216 176 183 197 190 190 195 160 208 183 180 185 187 191 183 164 167 158 155 147 127 111 107 103 102 90 90 76 76 67 77 44 49 65 76 9 296 234 250 232 206 222 240 238 225 232 237 232 239 246 254 263 260 245 239 242 243 233 229 232 233 217
55 74 47 9 264 270 189 181 233 223 222 220 286 279 267 253 236 308 92 155 170 198 266 199 214 178 195 193 192 189 187 182 184 183 179 187 198 191 177 166 172 158 153 137 126 119 119 117 104 98 94 98 88 79 60 51 39 36 14 21 2 170 242 255 251 234 224 218 220 226 229 232 244 247 249 256 252 242 242 247 250 245 235 229 227 223
126 69 208 216 185 219 239 204 214 289 264 235 235 334 333 305 277 221 165 195 204 196 209 209 220 219 195 205 195 176 189 191 180 188 188 189 190 186 189 183 172 166 153 139 132 125 115 112 126 128 130 119 119 99 81 67 62 15 24 0 347 276 224 224 232 243 240 230 226 213 216 217 223 239 235 234 238 237 235 231 236 248 242 232 226 220
74 117 272 263 227 230 242 293 57 266 274 257 193 323 301 284 263 237 225 244 241 249 174 218 244 219 179 205 185 191 203 194 188 197 194 192 185 185 191 179 175 173 154 147 140 144 137 135 137 133 123 119 110 95 98 111 95 107 36 21 329 322 292 243 226 225 228 241 240 230 228 227 226 228 233 235 239 245 241 242 252 263 281 265 236 226
156 163 193 217 245 238 238 238 158 265 274 261 67 268 268 253 247 250 260 255 283 47 54 217 234 259 202 200 199 178 202 195 202 198 195 208 196 189 188 177 174 171 160 156 158 152 140 141 143 127 128 132 109 120 134 115 117 85 91 278 303 303 292 281 241 223 223 229 229 232 228 230 235 235 245 235 241 237 236 241 247 242 236 243 262 244
256 170 223 233 241 259 255 325 66 265 268 318 54 264 261 277 275 268 265 268 266 278 225 204 212 239 247 185 187 186 200 204 200 199 202 201 196 194 189 181 173 174 161 164 159 156 153 151 152 147 144 121 142 149 141 129 96 105 92 26 137 267 278 275 253 248 237 240 243 242 234 225 230 235 240 243 244 236 237 240 235 227 228 240 246 257
141 314 21 314 288 263 350 161 265 274 260 91 294 244 240 245 242 258 254 244 232 232 246 224 193 240 238 170 179 190 220 216 212 200 202 202 197 190 187 184 177 173 166 168 158 157 155 154 156 157 144 165 155 156 144 134 123 103 96 94 37 42 298 293 280 266 254 239 240 240 237 232 238 229 233 241 240 237 224 236 235 224 221 222 226 245
52 103 351 273 281 348 308 161 284 264 355 250 239 240 233 235 244 233 250 274 261 248 247 263 201 241 254 206 193 192 212 214 205 204 207 207 196 194 192 189 180 177 173 170 164 159 156 156 160 167 182 169 172 174 167 134 122 117 96 42 46 46 353 318 297 279 267 265 245 240 234 235 237 240 235 237 234 239 235 236 237 227 231 235 230 232
197 183 214 151 302 278 280 242 175 264 259 235 235 249 255 253 242 251 250 229 248 247 232 232 233 227 253 234 223 183 215 230 211 211 209 206 200 197 193 189 186 179 176 174 169 164 162 160 170 180 182 182 171 174 161 150 132 126 107 98 54 73 26 328 314 293 273 259 250 248 243 234 232 236 232 230 234 232 232 228 241 230 230 240 241 234
241 219 53 192 116 268 239 246 204 215 215 233 240 241 248 250 213 234 225 223 235 256 199 174 212 221 236 255 314 126 176 198 211 226 223 215 213 202 193 188 185 180 179 177 173 168 168 173 174 188 176 178 179 168 167 145 133 130 120 122 28 55 41 345 290 293 294 274 262 243 239 238 234 235 230 239 239 235 234 225 226 236 232 229 227 225
258 122 206 158 196 173 267 252 232 224 219 226 232 238 239 245 243 244 239 247 254 223 159 201 165 255 282 256 234 198 192 229 213 226 240 246 234 219 202 191 184 183 182 178 175 170 171 175 178 181 177 179 178 176 168 146 136 130 106 94 39 73 141 285 279 275 268 269 256 249 236 243 244 242 245 242 236 235 236 234 233 232 234 235 231 227
294 204 177 209 183 94 250 268 302 283 246 238 245 244 249 252 270 261 245 248 242 262 159 154 232 259 242 129 110 155 45 61 224 251 248 243 241 229 210 200 192 185 181 177 176 174 172 174 175 177 183 180 182 175 162 157 145 133 107 84 12 306 279 268 280 278 281 278 275 269 257 247 240 243 242 242 243 242 238 238 241 242 238 239 238 235
285 297 86 20 32 276 266 29 289 271 253 242 260 263 252 257 153 241 333 314 319 305 241 183 234 292 238 135 147 162 177 214 224 234 233 226 221 221 214 209 204 195 188 179 175 173 171 171 175 179 185 188 180 173 168 160 152 144 107 39 346 324 312 293 288 292 297 301 302 297 277 255 255 255 253 248 245 244 246 245 243 247 244 237 237 236
215 242 109 109 208 238 336 264 223 286 255 138 220 226 266 5 281 279 228 268 331 263 255 260 243 235 234 202 203 198 206 224 210 228 222 224 213 206 206 204 204 201 193 186 175 173 170 170 178 185 186 179 178 185 176 162 143 132 135 238 279 275 270 279 294 293 291 295 292 294 294 290 280 269 260 257 251 245 244 248 248 247 247 244 237 234
297 330 149 202 194 131 337 296 303 260 292 265 233 117 79 22 323 281 271 186 230 250 256 241 253 263 266 273 121 189 236 224 231 233 221 222 212 208 210 207 201 198 193 189 175 170 171 174 179 184 184 177 180 186 168 150 137 146 202 253 268 256 277 281 281 282 282 287 292 293 283 282 275 267 271 272 267 261 254 248 248 249 249 249 250 243
263 273 157 197 282 137 180 229 206 186 240 268 316 38 262 212 226 208 258 260 258 255 272 250 252 258 253 249 174 210 236 246 228 214 237 231 219 218 218 213 206 197 189 190 180 171 170 172 178 181 179 179 183 185 166 146 174 180 196 226 242 263 275 278 278 280 276 282 292 296 295 299 293 279 265 258 259 259 254 250 248 245 250 256 251 247
209 279 172 166 200 156 225 224 243 177 167 235 262 242 226 281 258 246 216 278 277 274 273 269 267 260 240 249 259 287 310 276 291 254 251 258 243 228 221 211 204 194 193 194 182 170 171 176 181 179 180 187 180 175 162 172 220 214 227 225 234 245 264 275 272 276 280 283 286 296 298 298 305 302 297 283 259 250 249 250 251 251 248 247 249 251
234 174 285 137 173 197 231 214 242 238 234 185 218 222 185 237 13 296 287 257 263 281 278 290 273 271 330 62 77 308 290 309 304 291 282 269 259 237 222 206 203 197 194 195 183 176 175 176 179 176 183 200 169 156 174 192 207 224 230 232 236 244 249 253 263 270 272 276 280 294 302 306 310 308 310 307 288 266 258 249 244 248 250 250 248 247
225 198 255 213 202 219 266 67 320 282 295 283 268 246 249 239 221 230 252 216 257 258 265 271 276 281 89 165 326 294 308 317 336 309 297 286 270 244 219 203 196 196 199 199 192 184 176 174 176 180 189 198 170 182 197 199 212 216 218 228 242 242 258 266 261 262 267 273 282 291 302 307 309 309 317 314 302 287 277 269 261 249 244 242 247 248
281 278 256 255 259 278 40 97 65 306 284 278 281 266 263 269 272 258 266 259 246 254 275 277 286 278 38 62 335 286 250 271 0 322 321 310 282 236 214 208 199 202 202 198 195 190 181 176 178 188 187 185 186 205 203 206 211 217 216 219 225 244 269 285 282 273 270 276 283 287 293 296 301 311 314 307 304 299 297 298 295 282 265 254 253 249
151 234 236 250 256 239 184 165 186 230 251 242 232 250 249 243 249 257 266 313 288 290 260 263 253 272 147 160 188 200 246 262 299 299 306 306 306 239 213 206 200 197 197 200 198 195 186 178 181 187 185 189 195 202 205 208 214 217 221 222 230 231 255 270 259 253 253 266 272 284 289 290 296 301 309 312 310 302 303 303 299 294 285 273 257 250
220 194 261 264 251 216 198 194 203 182 225 239 249 214 234 254 255 268 284 268 264 262 272 277 277 282 117 184 161 222 221 260 284 270 258 283 259 238 218 204 203 198 193 195 197 194 188 186 190 195 192 199 204 205 205 213 220 225 223 230 238 250 249 265 270 272 270 265 269 274 283 290 292 292 296 301 304 308 308 306 302 294 291 286 284 279
241 195 210 248 248 249 243 240 247 195 209 234 248 246 231 245 237 239 245 241 251 259 265 260 268 280 291 149 209 239 259 273 267 268 258 250 269 255 228 209 203 202 199 195 196 196 194 193 198 200 198 206 207 210 207 214 222 231 231 229 236 250 252 256 259 265 276 280 275 275 274 280 278 280 287 303 305 310 311 315 318 318 307 303 291 282
250 245 240 251 256 264 282 310 333 303 259 241 229 234 237 231 244 243 263 259 255 271 264 259 272 286 287 288 300 292 281 277 280 271 242 227 221 234 229 222 212 208 206 201 201 202 199 200 204 203 201 212 215 209 222 219 219 226 233 231 229 233 250 255 258 266 274 277 279 281 277 270 274 278 278 286 316 304 308 323 334 331 332 323 309 297
229 243 227 242 255 266 283 280 288 265 272 266 261 245 235 232 233 242 243 252 268 276 267 272 285 285 286 291 291 284 283 274 264 250 247 250 245 240 229 218 216 215 212 208 205 206 205 203 200 202 204 210 220 208 218 221 226 231 229 230 232 238 236 240 258 269 271 274 273 278 281 281 280 279 294 316 302 331 344 352 360 351 352 342 337 330
234 244 237 241 249 259 262 272 274 261 258 264 263 263 255 242 235 238 243 251 261 262 271 286 291 286 286 288 292 290 289 284 285 288 281 276 264 237 227 221 216 216 214 213 209 208 208 204 201 201 203 207 214 214 212 222 227 231 232 233 238 242 242 234 246 258 268 268 269 274 276 273 286 306 282 283 285 311 335 358 1 355 0 356 357 344
246 245 233 216 267 267 263 258 259 261 262 256 253 253 253 251 246 244 248 250 253 259 265 273 280 282 288 291 291 294 296 288 284 276 263 245 240 239 228 223 221 219 214 212 210 208 207 208 205 201 200 203 210 208 207 217 229 225 227 231 240 240 236 235 236 256 257 259 259 261 258 252 253 282 296 276 278 303 312 322 335 338 354 1 3 0
230 216 152 224 251 256 252 246 251 255 262 267 262 257 253 250 252 249 250 251 256 261 262 265 273 279 283 282 274 264 264 275 258 251 251 252 245 233 229 226 223 222 217 214 211 208 207 208 208 204 200 202 207 208 208 219 222 223 227 231 228 235 223 223 230 243 253 256 255 248 242 239 240 265 268 306 302 306 307 325 324 318 333 12 13 8
208 241 208 236 255 264 254 243 252 253 259 266 269 259 251 247 246 240 240 240 245 250 257 266 269 269 277 281 283 274 264 249 248 250 250 243 235 231 232 232 227 221 217 214 211 207 206 207 206 205 203 204 205 207 215 218 223 223 230 228 230 226 225 226 233 243 237 250 244 239 242 239 242 254 280 287 295 310 326 319 308 320 325 359 29 28
209 232 222 230 251 260 271 245 269 278 275 265 253 252 250 247 246 248 246 239 236 246 258 258 262 275 296 310 290 275 264 258 257 254 256 245 239 239 236 236 233 223 218 212 209 206 206 205 204 204 207 208 206 209 218 218 223 224 222 214 217 217 220 220 231 237 246 245 238 244 256 259 264 276 276 287 307 313 297 303 307 329 332 37 40 26
218 231 242 233 250 267 265 251 266 271 257 257 58 101 139 249 241 248 246 239 237 232 245 254 267 276 281 283 279 283 283 275 267 267 275 280 254 233 245 243 237 227 216 212 207 205 203 204 207 208 208 212 210 211 220 221 221 214 211 211 202 202 212 228 223 234 244 243 247 250 254 269 279 287 296 303 305 302 293 292 327 338 323 32 85 42
225 227 246 239 248 261 295 277 271 262 258 321 155 242 252 274 273 266 265 260 255 245 244 250 259 266 272 277 284 287 282 281 269 258 249 237 243 253 246 241 233 226 219 211 207 204 203 204 208 209 205 207 208 204 212 217 209 202 202 204 197 205 215 223 233 226 234 245 250 254 263 275 279 291 307 308 309 295 293 323 14 286 263 54 49 36
223 214 233 239 245 261 267 257 260 258 17 333 268 269 91 251 253 253 257 254 251 251 248 248 259 266 268 275 280 279 284 289 278 258 248 238 231 236 238 236 230 219 215 209 204 204 205 205 206 206 207 206 203 202 202 206 199 196 204 201 208 209 216 225 235 232 225 239 244 259 261 276 290 295 303 305 306 288 288 8 25 314 222 152 128 104
228 233 225 246 226 243 244 258 258 290 288 275 267 213 197 210 202 263 312 302 284 253 237 244 248 257 268 269 283 287 280 265 257 246 219 224 214 219 230 238 223 214 212 210 203 202 201 201 203 204 202 199 199 198 203 196 195 204 208 205 217 214 213 224 238 242 223 240 247 258 273 288 301 307 310 313 297 287 295 212 93 225 223 167 140 117
228 231 193 235 221 208 259 268 266 263 265 268 203 117 154 107 59 7 314 297 261 249 240 238 243 244 247 256 239 241 213 243 247 249 142 194 199 205 210 217 209 203 200 200 200 199 201 200 199 198 198 194 197 202 201 201 196 204 209 211 213 213 218 225 238 241 236 238 244 248 268 285 294 310 314 299 282 299 330 316 28 132 218 173 144 116
225 230 230 225 228 195 235 255 260 267 263 325 163 158 150 142 97 295 291 278 125 125 153 184 210 235 295 271 185 194 226 254 270 29 116 181 195 197 197 196 198 200 197 196 194 197 197 197 198 194 190 195 199 202 202 202 204 209 208 211 209 216 225 228 243 242 241 243 242 245 317 305 306 316 305 292 264 222 295 279 179 156 193 153 131 110
209 213 223 228 231 232 242 245 255 248 264 253 267 184 153 139 90 307 284 291 121 139 136 151 148 17 212 183 183 226 263 276 299 53 55 59 191 186 205 191 190 195 198 197 195 196 192 188 191 193 194 198 201 201 201 202 201 208 213 214 216 216 226 232 243 244 239 243 202 159 190 270 282 295 288 275 45 76 124 132 150 164 180 162 152 135
207 222 218 229 228 227 226 250 259 262 256 248 229 170 151 133 309 270 239 80 110 133 155 174 137 131 146 176 211 264 249 347 28 59 57 74 189 195 197 201 197 196 196 195 189 183 184 185 191 191 191 198 201 200 200 195 202 211 213 211 210 215 230 241 238 242 243 238 219 182 169 282 290 269 256 249 204 163 191 166 150 160 172 165 146 133
211 216 228 232 238 234 228 236 249 268 271 259 223 208 151 193 226 234 305 71 113 112 180 218 185 173 170 196 250 306 21 72 132 188 223 237 241 201 196 188 190 189 191 185 162 179 184 186 191 197 202 204 201 199 197 198 202 207 207 204 215 224 236 240 231 230 232 226 225 234 164 175 261 245 242 222 211 184 172 162 157 156 163 157 138 127
213 207 219 217 223 237 236 241 246 255 142 191 135 148 173 216 250 254 323 30 41 165 206 196 150 191 214 203 244 300 301 236 235 223 232 230 230 207 196 194 192 186 185 177 178 189 191 189 191 195 198 196 193 190 186 186 195 200 201 208 213 222 234 230 222 222 225 224 229 219 213 171 172 227 224 204 216 186 169 167 163 164 152 143 134 121
188 224 229 224 201 221 220 221 225 239 173 153 165 192 178 218 331 36 308 275 229 298 276 265 229 253 247 280 282 253 262 265 228 230 235 231 222 220 200 204 209 201 192 194 194 187 194 198 192 190 185 186 184 184 185 189 196 196 199 207 208 221 202 204 217 221 218 213 224 211 214 188 177 202 200 193 201 167 170 166 166 181 164 156 138 132
190 228 253 263 181 225 229 228 229 244 164 181 210 246 205 215 233 263 284 283 289 277 292 269 271 245 235 261 267 278 262 228 263 212 235 217 218 210 207 202 207 206 201 195 195 183 188 196 188 187 184 182 183 185 186 190 198 190 194 198 202 189 195 202 202 202 210 215 222 205 211 197 190 183 199 176 201 185 169 165 188 179 162 161 148 137
345 255 27 253 241 223 255 278 299 234 212 206 218 246 248 232 244 251 259 272 264 278 272 276 279 265 235 229 256 242 259 262 233 208 210 205 205 203 206 206 204 202 201 194 193 187 197 197 193 184 178 177 180 183 186 191 189 182 193 202 196 194 198 197 198 201 214 222 221 205 203 194 196 197 185 197 195 180 183 177 184 184 162 166 158 151
252 241 247 248 247 222 239 224 236 242 236 229 240 234 234 245 259 256 256 249 269 292 292 278 271 259 246 240 235 251 258 250 250 221 203 195 196 202 205 207 205 198 193 196 190 178 193 194 190 187 180 177 176 180 181 187 188 190 201 192 194 196 194 198 199 201 210 212 207 196 211 195 199 195 178 199 208 199 175 172 190 164 172 166 162 155
232 16 259 242 240 228 253 256 262 249 253 249 247 229 225 223 214 204 223 242 275 284 285 297 275 251 235 231 228 236 248 244 241 232 212 199 191 193 200 205 201 197 192 190 175 179 189 195 197 189 182 173 171 177 179 185 196 198 194 184 196 195 191 195 195 206 209 202 210 200 189 210 111 183 192 191 204 196 186 173 184 188 176 178 168 171
333 320 248 228 237 235 248 256 245 245 252 241 221 239 226 167 163 178 186 213 226 258 266 258 243 268 244 243 235 232 240 238 234 237 229 211 194 190 193 195 196 192 180 182 173 178 191 196 199 187 182 174 171 176 181 189 194 187 179 182 186 188 188 190 189 205 210 200 204 205 194 213 187 204 208 186 198 206 180 183 179 182 186 178 184 181
246 257 264 262 239 236 239 255 260 248 248 186 162 173 173 162 196 182 196 210 218 252 291 318 311 246 252 254 242 237 242 243 236 225 231 229 214 195 190 186 184 184 183 183 176 185 188 190 192 185 186 182 174 180 186 184 186 179 180 185 191 186 191 185 187 200 202 198 203 200 197 211 199 189 207 188 195 179 112 57 59 36 19 186 104 54
236 251 328 284 251 249 15 5 352 297 268 258 325 274 195 202 219 238 235 234 265 299 312 304 313 319 296 242 226 230 235 241 232 210 222 226 214 194 191 185 181 181 181 181 181 184 188 187 191 191 192 188 179 187 187 185 186 184 188 185 181 185 193 184 190 197 199 194 203 200 198 206 196 191 198 190 191 182 158 152 106 77 64 30 70 69